Regional Weather Roundup
Issued by NWS Sterling, VA

Home | Current Version | Previous Version | Text Only | Print | Product List | Glossary Off
Versions: 1 2 3 4 5 6 7 8 9 10 11 12 13 14 15 16 17 18 19 20 21 22 23 24 25 26 27

000
ASUS41 KLWX 241511
RWRLWX

REGIONAL WEATHER ROUNDUP
NATIONAL WEATHER SERVICE BALTIMORE MD/WASHINGTON DC
1100 AM EDT MON APR 24 2017

Note: "FAIR" indicates few or no clouds below 12,000 feet
with no significant weather and/or obstructions to visibility.
 TC=TEMPERATURE CELSIUS

 * =Non NWS site. Station does not report precipitation (e.g. rain,
    snow, etc.), thunder, or fog.

DCZ001-MDZ009-015-VAZ040>042-051-053>054-241600-
WASHINGTON METRO

CITY           SKY/WX    TMP DP  RH WIND       PRES   REMARKS
WASHINGTON NAT CLOUDY    55  49  80 NE17      30.09S
DULLES         CLOUDY    53  44  71 NE9       30.07F
ANDREWS AFB    CLOUDY    54  42  65 NE17      30.06F
FT BELVOIR     CLOUDY    55  48  78 N6        30.07S
QUANTICO       CLOUDY    56  49  77 NE15G23   30.06F
LEESBURG*      CLOUDY    55  50  82 NE10G18   30.09F
MANASSAS*        N/A     53  47  79 NE8       30.08S

$$

MDZ006>007-011-014-241600-
BALTIMORE METRO

CITY           SKY/WX    TMP DP  RH WIND       PRES   REMARKS
BWI AIRPORT    CLOUDY    54  46  74 NE14      30.10F
MD SCIENCE CTR   N/A     56  41  57 MISG      30.11F
MARTIN STATE   CLOUDY    55  46  71 NE8       30.12F
ANNAPOLIS      CLOUDY    55  45  68 NE12      30.09F
FORT MEADE*    CLOUDY    54  45  71 NE7G16    30.12S

$$

MDZ012-015-019>023-241600-
MARYLAND EASTERN SHORE

CITY           SKY/WX    TMP DP  RH WIND       PRES   REMARKS
OCEAN CITY     LGT RAIN  53  50  89 NE14      30.06S FOG
SALISBURY      LGT RAIN  55  53  93 NE18G24   30.05F FOG
BAY BRIDGE AP* CLOUDY    54  46  76 NE8G17    30.09F HAZE
CAMBRIDGE*     CLOUDY    55  48  76 NE8G15    30.06S
EASTON*        PTSUNNY   55  46  71 NE12      30.11F

$$

MDZ017>025-241600-
SOUTHERN MARYLAND

CITY           SKY/WX    TMP DP  RH WIND       PRES   REMARKS
PATUXENT RIVER LGT RAIN  54  51  90 NE14      30.05S
ST INIGOES     LGT RAIN  54  51  90 NE13G22   30.02F
LEONARDTOWN*   CLOUDY    52  48  87 NE7       30.06S

$$

MDZ003>005-241600-
NORTH CENTRAL MARYLAND

CITY           SKY/WX    TMP DP  RH WIND       PRES   REMARKS
FREDERICK*     CLOUDY    55  55 100 NE7       30.14S
HAGERSTOWN APT LGT RAIN  56  49  77 E7        30.11R
WESTMINSTER*   CLOUDY    54  48  82 E7        30.11S

$$

MDZ501>502-241600-
WESTERN MARYLAND

CITY           SKY/WX    TMP DP  RH WIND       PRES   REMARKS
OAKLAND*       MOSUNNY   43  37  81 SE22      30.03F
CUMBERLAND*    CLOUDY    54  45  71 N5        30.14S

$$

VAZ025>031-241600-
SHENANDOAH VALLEY

CITY           SKY/WX    TMP DP  RH WIND       PRES   REMARKS
WINCHESTER*    CLOUDY    50  46  87 NE7       30.09S
FRONT ROYAL*   CLOUDY    52  50  93 N3        30.08S
LURAY*         CLOUDY    50  48  93 N7        30.07S
NEW MARKET*    CLOUDY    49  46  88 N10       30.06F
STAUNTON*      DRIZZLE   48  47  97 N9        30.07S
WAYNESBORO*    CLOUDY    47  47 100 N8        30.04S

$$

WVZ021-048>050-054>055-241600-
EASTERN WEST VIRGINIA PANHANDLE

CITY           SKY/WX    TMP DP  RH WIND       PRES   REMARKS
MARTINSBURG    CLOUDY    54  48  80 NE7       30.09S
PETERSBURG*    CLOUDY    52  48  87 NW6       30.09F

$$

VAZ036>039-050-241600-
CENTRAL FOOTHILLS

CITY           SKY/WX    TMP DP  RH WIND       PRES   REMARKS
CHARLOTTESVILL LGT RAIN  51  49  92 N15       30.04S FOG
CULPEPER*      CLOUDY    53  51  92 NE7       30.07S
ORANGE*        RAIN      50  48  93 NE12      30.05S
GORDONSVILLE*  CLOUDY    50  49  94 N8        30.04S
WARRENTON*     CLOUDY    54  48  81 NE7       30.06S

$$

VAZ055>057-241600-
NORTH AND CENTRAL PIEDMONT

CITY           SKY/WX    TMP DP  RH WIND       PRES   REMARKS
FREDERICKSBRG* LGT RAIN  53  47  78 N9        30.04S
STAFFORD*      CLOUDY    53  48  84 NE8       30.09S

$$

NCZ024-NYZ072-PAZ021-071-VAZ022-071-241600-
OTHER REGIONAL OBSERVATIONS

CITY           SKY/WX    TMP DP  RH WIND       PRES   REMARKS
NEW YORK CITY  CLOUDY    57  42  57 VRB3      30.20S
PHILADELPHIA   LGT RAIN  53  42  66 NE8       30.15S
PITTSBURGH     MOSUNNY   61  42  49 E15       30.03S
ROANOKE        LGT RAIN  50  48  93 NE12      30.00S
RICHMOND       CLOUDY    53  52  96 NE13      29.99S FOG
RALEIGH        HVY RAIN  54  53  97 NE10      29.90R FOG

$$

ANZ530>537-241600-
MARINE OBSERVATIONS

STATION/POSITION TIME  TEMP    WIND        PRES
                       AIR SEA DIR/SP/G
                 (UTC) (F)     (DEG/KT/KT) (MB)
THOMAS PT LIGHT  1500   52 58   30/ 17/ 19   N/A
BALT KEY BRIDGE  1448   54      50/ 11/ 15 1019.4F
COVE POINT       1448   54      40/ 18/ 20 1018.3F
LEWISETTA        1448   54 62   50/ 10/ 17 1016.5F
SOLOMONS ISLAND  1448   54 61   30/  9/ 13   N/A
PINEY POINT      1448           70/ 12/ 21   N/A

$$





USA.gov is the U.S. government's official web portal to all federal, state and local government web resources and services.